N1LTP Weather Reports


Display with metric or nautical units.
time (UTC)temp
F
wind
direction
speed
MPH
gust
MPH
rain 1hr
in
rain 24hr
in
rain mn
in
humidity
%
barometer
mb
20260510204558 69 59 0.0 3.0 0.00 0.35 0.17 71 1010.5
20260510203052 70 51 1.0 4.0 0.00 0.35 0.17 70 1010.5
20260510201550 70 153 1.0 9.0 0.00 0.35 0.17 70 1010.6
20260510200059 70 140 1.0 3.0 0.00 0.35 0.17 70 1010.8
20260510194601 70 50 1.0 6.0 0.00 0.35 0.17 71 1011.0
20260510193046 70 331 0.0 6.0 0.00 0.35 0.17 72 1011.0
20260510191545 69 142 1.0 5.0 0.00 0.35 0.17 72 1011.1
20260510190051 70 134 1.0 5.0 0.00 0.35 0.17 72 1011.2
20260510184550 70 32 1.0 8.0 0.00 0.36 0.17 72 1011.1
20260510183043 70 304 2.0 7.0 0.00 0.36 0.17 73 1011.2
20260510181541 70 140 2.0 5.0 0.00 0.36 0.17 73 1011.2
20260510180037 69 325 0.0 3.0 0.00 0.36 0.17 74 1011.6
20260510174540 69 327 2.0 7.0 0.00 0.36 0.17 73 1011.7
20260510173033 68 296 0.0 5.0 0.00 0.36 0.17 76 1011.8
20260510171532 67 252 1.0 4.0 0.00 0.36 0.17 76 1011.9
20260510170031 67 355 1.0 4.0 0.00 0.36 0.17 75 1011.8
20260510164531 67 146 1.0 4.0 0.00 0.36 0.17 78 1012.0
20260510163027 65 305 1.0 4.0 0.00 0.36 0.17 81 1012.1
20260510161526 64 120 1.0 4.0 0.00 0.36 0.17 80 1012.2
20260510160031 62 52 1.0 4.0 0.00 0.36 0.17 85 1012.4
20260510154522 62 34 0.0 4.0 0.00 0.36 0.17 86 1012.4
20260510153014 61 209 1.0 4.0 0.00 0.36 0.17 87 1012.6
20260510151522 60 81 0.0 3.0 0.00 0.36 0.17 86 1012.7
20260510150011 60 316 0.0 3.0 0.00 0.36 0.17 87 1012.8
20260510144508 60 150 0.0 4.0 0.00 0.36 0.17 88 1012.8
20260510143010 59 102 0.0 4.0 0.00 0.36 0.17 88 1012.7
20260510141507 59 158 0.0 4.0 0.00 0.36 0.17 91 1012.6
20260510140000 58 87 0.0 5.0 0.00 0.36 0.17 95 1012.7
20260510134607 57 5 1.0 3.0 0.00 0.36 0.17 95 1012.6
20260510133054 56 323 0.0 3.0 0.00 0.36 0.17 97 1012.7
20260510131551 55 355 1.0 3.0 0.00 0.36 0.17 97 1012.6
20260510130048 54 319 0.0 3.0 0.00 0.36 0.17 97 1012.4
20260510124549 54 355 1.0 3.0 0.00 0.36 0.17 97 1012.2
20260510123046 54 355 0.0 1.0 0.00 0.36 0.17 97 1012.0
20260510121545 54 300 0.0 3.0 0.00 0.36 0.17 97 1012.0
20260510120042 54 231 0.0 2.0 0.00 0.36 0.17 97 1011.9
20260510114603 53 48 0.0 2.0 0.00 0.54 0.17 97 1012.3
20260510113051 53 91 0.0 2.0 0.00 0.54 0.17 97 1012.3
20260510111541 53 88 0.0 2.0 0.00 0.54 0.17 97 1012.2
20260510110041 53 88 0.0 0.0 0.00 0.54 0.17 97 1012.3
20260510104531 53 89 0.0 1.0 0.00 0.65 0.17 97 1012.3
20260510103029 52 89 0.0 0.0 0.00 0.65 0.17 97 1012.2
20260510101528 52 89 0.0 0.0 0.00 0.65 0.17 97 1012.3
20260510100032 52 89 0.0 1.0 0.00 0.65 0.17 97 1012.3
20260510094532 52 89 0.0 0.0 0.00 0.65 0.17 97 1012.1
20260510093021 52 89 0.0 0.0 0.00 0.65 0.17 97 1011.6
20260510091520 52 89 0.0 1.0 0.00 0.65 0.17 97 1011.5
20260510090120 52 89 0.0 2.0 0.00 0.65 0.17 97 1011.5
20260510084525 52 36 0.0 1.0 0.00 0.65 0.17 97 1011.4
20260510083021 52 36 0.0 1.0 0.06 0.65 0.17 97 1011.4
20260510081519 52 36 0.0 0.0 0.06 0.65 0.17 97 1011.6
20260510080017 52 36 0.0 0.0 0.06 0.65 0.17 97 1011.5
20260510074516 52 36 0.0 0.0 0.06 0.77 0.17 97 1011.4
20260510073014 52 36 0.0 1.0 0.00 0.71 0.11 97 1011.2
20260510071519 52 36 0.0 0.0 0.00 0.71 0.11 97 1011.1
20260510070013 52 36 0.0 1.0 0.00 0.71 0.11 97 1010.9
20260510064512 52 33 0.0 1.0 0.01 0.84 0.11 97 1010.9
20260510063013 52 292 0.0 2.0 0.07 0.84 0.11 97 1011.1
20260510061514 52 221 0.0 2.0 0.07 0.84 0.11 97 1011.2
20260510060008 52 222 0.0 0.0 0.07 0.84 0.11 97 1011.0
20260510054508 51 222 0.0 1.0 0.03 0.81 0.07 97 1011.0
20260510053005 51 223 0.0 0.0 0.00 0.78 0.04 97 1010.8
20260510051503 51 223 0.0 0.0 0.04 0.78 0.04 96 1011.0
20260510050003 51 223 0.0 0.0 0.04 0.78 0.04 96 1011.2
20260510044612 51 223 0.0 0.0 0.04 0.78 0.04 96 1011.2
20260510043110 51 223 0.0 0.0 0.04 0.78 0.04 96 1011.0
20260510041605 51 227 0.0 0.0 0.04 0.74 0.00 96 1011.0
20260510040058 51 227 0.0 1.0 0.04 0.74 0.00 96 1011.1
20260510034558 51 227 0.0 1.0 0.04 0.74 0.74 96 1011.2
20260510033121 51 227 0.0 1.0 0.04 0.74 0.74 96 1011.2
20260510031619 51 227 0.0 1.0 0.00 0.70 0.70 96 1011.4
20260510030100 51 227 0.0 0.0 0.00 0.70 0.70 96 1011.6
20260510024556 51 227 0.0 0.0 0.00 0.70 0.70 96 1011.8
20260510023055 51 227 0.0 0.0 0.06 0.70 0.70 96 1012.2
20260510021554 51 227 0.0 0.0 0.06 0.70 0.70 96 1012.4
20260510020054 51 228 0.0 0.0 0.06 0.70 0.70 96 1012.5
20260510014605 52 228 0.0 0.0 0.06 0.70 0.70 95 1012.7
20260510013053 52 228 0.0 0.0 0.05 0.64 0.64 95 1012.6
20260510011559 52 228 0.0 0.0 0.05 0.64 0.64 95 1012.7
20260510010101 52 228 0.0 2.0 0.06 0.64 0.64 95 1012.8
20260510004556 53 236 0.0 1.0 0.03 0.59 0.59 95 1012.8
20260510003059 53 236 0.0 3.0 0.03 0.59 0.59 95 1012.7
20260510001551 53 122 0.0 2.0 0.03 0.59 0.59 95 1012.7
20260510000054 54 124 0.0 2.0 0.02 0.57 0.57 95 1012.7
20260509234605 54 143 0.0 2.0 0.00 0.56 0.56 95 1012.6
20260509233049 54 143 0.0 0.0 0.00 0.56 0.56 95 1012.6
20260509231549 54 144 0.0 1.0 0.00 0.56 0.56 95 1012.6
20260509230048 54 144 0.0 1.0 0.00 0.56 0.56 95 1012.5
20260509224547 54 200 0.0 1.0 0.00 0.56 0.56 94 1012.4
20260509223056 54 208 0.0 4.0 0.00 0.56 0.56 94 1012.3
20260509221550 55 241 0.0 2.0 0.00 0.56 0.56 94 1012.4
20260509220057 55 119 0.0 1.0 0.00 0.56 0.56 93 1012.0
20260509214546 55 132 0.0 3.0 0.00 0.56 0.56 93 1011.9
20260509213045 55 126 0.0 2.0 0.00 0.56 0.56 92 1012.0
20260509211545 56 187 0.0 5.0 0.00 0.56 0.56 90 1011.9
20260509210043 57 158 1.0 3.0 0.00 0.56 0.56 87 1011.6